Shelikof Strait, AK (46077)

Conditions for Monday

Daily
Weekly
Monthly
Marine Data Graph

Marine & Boating Location Search

Enter a coastal zip code for marine weather.

General Information

Location: 57.892 North -154.291 West
Buoy Type: 6-meter NOMAD buoy
Buoy Hull: 6N52
Payload: ARES payload
Owned by: NDBC
Windspeed: Measured by obtained from anemometer
Sea Surface: Measured by Intake
Note: CAUTION....This buoy is protected from northwest winds. Northwest winds may be much stronger in other parts of Shelikof Strait.

Weather and Wave Data

Time Temp Humidity Wind Dominant Wave Wind Wave Wave Swell Pressure
  Air
(°F)
Water
(°F)
  Dir Speed
(kts)
Speed
(mph)
Period
(sec)
Height
(ft)
Range
(ft)
Period
(sec)
Height
(ft)
Range
(ft)
Period
(sec)
Height
(ft)
Range
(ft)
Atmo.
(in)
Tend.
(in)
20:50 40 39 97 NNE 5.8 6.7 14 6.89 exactly 6.9 4 1.64 0.82 - 2.46 14 6.56 5.74 - 7.38 29.22 +0.01
21:50 40 39 92 East 3.9 4.5 15 5.91 exactly 5.9 3 1.64 0.82 - 2.46 15 4.92 4.10 - 5.74 29.24 +0.02
22:50 40 39 88 East 5.8 6.7 13 6.23 exactly 6.2 3 1.64 0.82 - 2.46 13 6.56 5.74 - 7.38 29.25 +0.03
23:50 40 39 93 East 3.9 4.5 15 5.58 exactly 5.6 4 1.64 0.82 - 2.46 15 4.92 4.10 - 5.74 29.27 +0.04
01:50 39 36 90 ENE 3.9 4.5 11 5.91 exactly 5.9 4 1.64 0.82 - 2.46 11 4.92 4.10 - 5.74 29.26 -
02:50 39 36 87 ESE 3.9 4.5 12 6.23 exactly 6.2 4 1.64 0.82 - 2.46 12 6.56 5.74 - 7.38 29.27 -
03:50 39 37 90 ESE 5.8 6.7 11 5.91 exactly 5.9 4 1.64 0.82 - 2.46 11 6.56 5.74 - 7.38 29.29 +0.02
04:50 39 37 91 East 3.9 4.5 11 5.25 exactly 5.2 4 1.64 0.82 - 2.46 11 4.92 4.10 - 5.74 29.30 +0.04
05:50 38 37 96 NE 5.8 6.7 11 5.25 exactly 5.2 3 1.64 0.82 - 2.46 11 4.92 4.10 - 5.74 29.31 +0.05
06:50 39 37 94 ESE 5.8 6.7 12 5.25 exactly 5.2 3 1.64 0.82 - 2.46 12 4.92 4.10 - 5.74 29.32 +0.04
07:50 38 37 100 NE 5.8 6.7 13 5.25 exactly 5.2 3 1.64 0.82 - 2.46 13 4.92 4.10 - 5.74 29.33 +0.03
08:50 38 37 94 NNE 1.9 2.2 13 4.59 exactly 4.6 3 1.64 0.82 - 2.46 13 4.92 4.10 - 5.74 29.35 +0.03
09:50 38 37 91 ENE 1.9 2.2 11 5.25 exactly 5.2 4 1.64 0.82 - 2.46 11 4.92 4.10 - 5.74 29.36 +0.04
10:50 38 37 100 SE 5.8 6.7 12 5.25 exactly 5.2 3 1.64 0.82 - 2.46 12 4.92 4.10 - 5.74 29.39 +0.06
11:50 38 38 100 SE 7.8 8.9 10 4.59 exactly 4.6 3 1.64 0.82 - 2.46 10 4.92 4.10 - 5.74 29.42 +0.07
12:50 38 38 100 SE 7.8 8.9 11 4.59 exactly 4.6 3 1.64 0.82 - 2.46 11 4.92 4.10 - 5.74 29.44 +0.08
13:50 39 40 98 SE 7.8 8.9 12 4.27 exactly 4.3 3 1.64 0.82 - 2.46 12 3.28 2.46 - 4.10 29.47 +0.07
14:50 39 39 99 ESE 7.8 8.9 9 3.94 exactly 3.9 3 1.64 0.82 - 2.46 9 3.28 2.46 - 4.10 29.47 +0.04
15:50 38 40 100 ESE 7.8 8.9 12 4.27 exactly 4.3 3 1.64 0.82 - 2.46 12 3.28 2.46 - 4.10 29.46 +0.02
16:50 38 40 100 SE 5.8 6.7 11 3.61 exactly 3.6 3 1.64 0.82 - 2.46 11 3.28 2.46 - 4.10 29.47 -
17:50 39 40 100 SE 9.7 11.2 11 3.28 exactly 3.3 4 1.64 0.82 - 2.46 11 3.28 2.46 - 4.10 29.47 -
18:50 38 40 100 South 7.8 8.9 11 3.28 exactly 3.3 4 1.64 0.82 - 2.46 11 3.28 2.46 - 4.10 29.47 -
19:50 39 40 96 SSE 7.8 8.9 11 2.62 exactly 2.6 3 1.64 0.82 - 2.46 11 1.64 0.82 - 2.46 29.48 -
20:50 39 40 97 SSE 5.8 6.7 10 3.28 exactly 3.3 3 1.64 0.82 - 2.46 10 3.28 2.46 - 4.10 29.49 +0.01
22:50 40 40 88 ENE 3.9 4.5 8 2.62 exactly 2.6 4 1.64 0.82 - 2.46 8 1.64 0.82 - 2.46 29.50 +0.02
23:50 39 40 98 NNE 7.8 8.9 10 2.95 exactly 3.0 4 1.64 0.82 - 2.46 10 3.28 2.46 - 4.10 29.51 +0.02
00:50 40 40 79 East 9.7 11.2 10 2.62 exactly 2.6 4 1.64 0.82 - 2.46 10 1.64 0.82 - 2.46 29.50 +0.01
01:50 40 40 79 East 13.6 15.7 11 2.95 exactly 3.0 6 1.64 0.82 - 2.46 11 1.64 0.82 - 2.46 29.50 -
02:50 40 40 82 East 11.7 13.4 11 2.95 exactly 3.0 4 1.64 0.82 - 2.46 11 1.64 0.82 - 2.46 29.50 -0.01
03:50 40 40 87 ENE 11.7 13.4 11 2.95 exactly 3.0 3 1.64 0.82 - 2.46 11 1.64 0.82 - 2.46 29.50 -

Detailed Wave Spectra

Time Water Depth Wave Height Spectral Peak Period Average Wave Period Sampling Interval Wave Record
20:00 696 ft 6.50 ft 12.1 sec 8.7 sec 0.6 sec 2400 sec
21:00 696 ft 6.82 ft 13.8 sec 9.0 sec 0.6 sec 2400 sec
22:00 696 ft 5.87 ft 14.8 sec 8.2 sec 0.6 sec 2400 sec
23:00 696 ft 6.33 ft 12.9 sec 8.7 sec 0.6 sec 2400 sec
00:00 696 ft 5.54 ft 14.8 sec 8.2 sec 0.6 sec 2400 sec
02:00 696 ft 5.74 ft 11.4 sec 8.4 sec 0.6 sec 2400 sec
03:00 696 ft 6.23 ft 12.1 sec 8.6 sec 0.6 sec 2400 sec
04:00 696 ft 6.00 ft 11.4 sec 8.2 sec 0.6 sec 2400 sec
05:00 696 ft 5.09 ft 11.4 sec 7.5 sec 0.6 sec 2400 sec
06:00 696 ft 5.18 ft 11.4 sec 7.6 sec 0.6 sec 2400 sec
07:00 696 ft 5.15 ft 12.1 sec 7.2 sec 0.6 sec 2400 sec
08:00 696 ft 5.31 ft 12.9 sec 7.5 sec 0.6 sec 2400 sec
09:00 696 ft 4.69 ft 12.9 sec 7.4 sec 0.6 sec 2400 sec
10:00 696 ft 5.41 ft 11.4 sec 8.0 sec 0.6 sec 2400 sec
11:00 696 ft 5.12 ft 12.1 sec 7.8 sec 0.6 sec 2400 sec
12:00 696 ft 4.43 ft 10.0 sec 7.4 sec 0.6 sec 2400 sec
13:00 696 ft 4.69 ft 10.8 sec 6.6 sec 0.6 sec 2400 sec
14:00 696 ft 4.17 ft 12.1 sec 6.5 sec 0.6 sec 2400 sec
15:00 696 ft 3.90 ft 9.1 sec 5.8 sec 0.6 sec 2400 sec
16:00 696 ft 4.13 ft 12.1 sec 6.4 sec 0.6 sec 2400 sec
17:00 696 ft 3.77 ft 10.8 sec 6.2 sec 0.6 sec 2400 sec
18:00 696 ft 3.38 ft 11.4 sec 5.7 sec 0.6 sec 2400 sec
19:00 696 ft 3.18 ft 11.4 sec 5.1 sec 0.6 sec 2400 sec
20:00 696 ft 2.66 ft 11.4 sec 4.9 sec 0.6 sec 2400 sec
21:00 696 ft 3.31 ft 10.0 sec 5.9 sec 0.6 sec 2400 sec
22:00 696 ft 2.66 ft 8.3 sec 4.9 sec 0.6 sec 2400 sec
23:00 696 ft 2.72 ft 8.3 sec 4.7 sec 0.6 sec 2400 sec
00:00 696 ft 2.92 ft 10.0 sec 4.9 sec 0.6 sec 2400 sec
01:00 696 ft 2.76 ft 10.0 sec 4.9 sec 0.6 sec 2400 sec
02:00 696 ft 2.79 ft 11.4 sec 4.7 sec 0.6 sec 2400 sec
03:00 696 ft 2.99 ft 11.4 sec 4.4 sec 0.6 sec 2400 sec